www.pogodaiklimat.ru

Архив погоды в Эдинбурге (Великобритания)

Время
(UTC), дата
04 13.08
05 13.08
06 13.08
07 13.08
08 13.08
09 13.08
10 13.08
11 13.08
12 13.08
13 13.08
14 13.08
15 13.08
16 13.08
17 13.08
18 13.08
19 13.08
20 13.08
21 13.08
22 13.08
23 13.08
00 14.08
01 14.08
02 14.08
03 14.08
04 14.08
05 14.08
06 14.08
07 14.08
08 14.08
09 14.08
10 14.08
11 14.08
12 14.08
13 14.08
14 14.08
15 14.08
16 14.08
17 14.08
18 14.08
19 14.08
20 14.08
21 14.08
22 14.08
23 14.08
00 15.08
01 15.08
02 15.08
03 15.08
04 15.08
05 15.08
06 15.08
07 15.08
08 15.08
09 15.08
10 15.08
11 15.08
12 15.08
13 15.08
14 15.08
15 15.08
16 15.08
17 15.08
18 15.08
19 15.08
20 15.08
21 15.08
22 15.08
23 15.08
00 16.08
01 16.08
02 16.08
03 16.08
04 16.08
05 16.08
06 16.08
07 16.08
08 16.08
09 16.08
10 16.08
11 16.08
12 16.08
13 16.08
14 16.08
15 16.08
16 16.08
17 16.08
18 16.08
19 16.08
20 16.08
21 16.08
22 16.08
23 16.08
00 17.08
01 17.08
02 17.08
03 17.08
04 17.08
05 17.08
06 17.08
07 17.08
08 17.08
09 17.08
10 17.08
11 17.08
12 17.08
13 17.08
14 17.08
15 17.08
16 17.08
17 17.08
18 17.08
19 17.08
20 17.08
21 17.08
22 17.08
23 17.08
00 18.08
01 18.08
02 18.08
03 18.08
04 18.08
05 18.08
06 18.08
07 18.08
08 18.08
09 18.08
10 18.08
11 18.08
12 18.08
13 18.08
14 18.08
15 18.08
16 18.08
17 18.08
18 18.08
19 18.08
20 18.08
21 18.08
22 18.08
23 18.08
00 19.08
01 19.08
02 19.08
03 19.08
04 19.08
05 19.08
06 19.08
07 19.08
08 19.08
09 19.08
10 19.08
11 19.08
12 19.08
13 19.08
14 19.08
15 19.08
16 19.08
17 19.08
18 19.08
19 19.08
20 19.08
21 19.08
22 19.08
23 19.08
00 20.08
01 20.08
02 20.08
Ветер
(напр.,м/с)
Видим. Явления Облачность Т
(С)
Тd
(С)
f
(%)
Тe
(С)
Тes
(С)
Комфортность P
(гПа)
Po
(гПа)
Тmin
(С)
Tmax
(С)
R
(мм)
R24
(мм)
S
(см)
В 2-3
{4}
7000 м дымка 10/10 120 м +15.2 +14.1 93 +15 +15 тепло 1019.4 1012.6
СВ 2-2
{3}
8000 м дымка 10/10 180 м +15.3 +14.0 92 +15 +15 тепло 1019.3 1012.4
В 2-4
{4}
11 км дымка 10/10 210 м +15.5 +13.8 90 +15 +15 тепло 1019.2 1012.4 +14.5 +18.5
СВ 3-4
{4}
14 км 10/10 240 м +15.9 +13.5 86 +16 +16 тепло 1019.1 1012.2
СВ 2-4
{4}
13 км 10/10 270 м +16.4 +13.8 85 +16 +16 тепло 1019.1 1012.3
СВ 3-5
{5}
17 км 6/6 300 м +18.0 +13.5 75 +18 +21 тепло 1019.0 1012.3 +18.1
С 4-6
{6}
23 км ясно +18.7 +13.4 71 +19 +26 тепло 1018.7 1012.0
С 4-6
{6}
27 км ясно +19.6 +13.3 67 +21 +29 комфорт 1018.3 1011.5
СВ 3-5
{6}
35 км ясно +21.6 +13.7 61 +24 +34 комфорт 1017.8 1011.1
СВ 4-6
{6}
40 км ясно +22.4 +13.6 57 +25 +34 комфорт 1017.4 1010.7
СВ 4-5
{6}
55 км ясно +22.1 +13.8 59 +25 +32 комфорт 1017.0 1010.3
СВ 3-5
{5}
55 км ясно +21.9 +14.4 62 +25 +32 комфорт 1016.5 1009.9
В 4-5
{6}
50 км 1/1 +21.1 +14.4 66 +24 +27 комфорт 1016.0 1009.4
СВ 3-4
{5}
45 км ясно +19.9 +14.0 69 +22 +25 комфорт 1015.5 1008.8
СВ 3-4
{5}
45 км ясно +18.8 +14.7 77 +20 +21 тепло 1015.3 1008.6 +23.0
С 2-3
{4}
28 км ясно +16.6 +14.4 87 +17 +17 тепло 1015.3 1008.5
С 2-3
{3}
11 км 1/1 +15.6 +14.5 93 +15 +15 по сезону 1015.2 1008.4
В 2-2
{4}
15 км 10/10 +15.3 +14.5 95 +15 +15 по сезону 1015.2 1008.4 +23.0
штиль 0
{2}
12 км 1/1 +13.9 +12.8 93 +13 +13 по сезону 1014.9 1008.1
штиль 0-1
{2}
12 км 9/9 120 м +13.7 +13.1 96 +13 +13 по сезону 1014.6 1007.7
штиль 0
{1}
9000 м дымка 10/10 90 м +15.2 +14.9 98 +15 +15 тепло 1014.2 1007.4
В 2-3
{4}
1300 м дымка 10/10 30 м +15.1 +14.7 97 +15 +15 тепло 1013.7 1006.9
СВ 3-5
{5}
6000 м дымка 10/10 60 м +15.0 +14.5 97 +14 +14 тепло 1013.4 1006.6
В 2-3
{4}
5000 м дымка 10/10 30 м +15.0 +14.4 96 +15 +15 тепло 1012.9 1006.1
СВ 3-4
{4}
5000 м дымка 10/10 60 м +14.8 +14.2 96 +14 +14 тепло 1012.6 1005.8
В 2-3
{4}
5000 м дымка 10/10 60 м +14.7 +14.1 96 +14 +14 тепло 1012.2 1005.4
СВ 2-4
{4}
5000 м дымка 10/10 60 м +14.5 +13.9 96 +14 +14 тепло 1011.8 1004.9 +13.4 +18.9
СВ 3-4
{4}
5000 м в посл. час туман 10/10 30 м +14.4 +14.0 97 +13 +13 тепло 1011.3 1004.5
СВ 3-4
{5}
11 км 10/10 60 м +15.1 +13.9 93 +14 +14 тепло 1011.1 1004.3
В 2-3
{4}
17 км 10/10 90 м +15.3 +14.1 93 +15 +15 по сезону 1010.9 1004.1 +15.5
В 4-5
{6}
40 км 10/10 150 м +17.6 +14.0 79 +17 +17 тепло 1010.4 1003.6
СВ 2-4
{6}
50 км 1/1 2000 м +19.2 +14.2 73 +21 +31 комфорт 1009.6 1002.9
С 5-7
{7}
28 км ясно +18.3 +14.2 77 +18 +25 тепло 1008.8 1002.1
СВ 4-7
{7}
21 км ясно +19.9 +14.7 72 +22 +30 комфорт 1008.1 1001.5
СВ 4-6
{6}
19 км ясно +19.9 +14.8 72 +22 +29 комфорт 1007.5 1000.8
СВ 3-5
{6}
24 км 8/8 2000 м +19.3 +14.5 74 +21 +22 комфорт 1007.0 1000.3
С 3-4
{4}
10 км слаб. дождь 10/10 2000 м +16.9 +14.6 86 +17 +17 тепло 1006.9 1000.2
СВ 2-3
{4}
9000 м в посл. час дождь 10/10 1500 м +17.4 +15.3 87 +18 +18 тепло 1006.3 999.6
СВ 2-4
{6}
9000 м дымка 10/10 120 м +17.5 +15.1 86 +18 +18 тепло 1006.2 999.5 +20.4
ЮВ 1-3
{4}
8000 м дымка 5/5 180 м +17.2 +15.4 89 +18 +18 тепло 1006.2 999.5
В 2-3
{3}
6000 м дымка 10/10 180 м +16.6 +15.3 92 +17 +17 тепло 1005.5 998.8
С 3-5
{5}
8000 м дымка 10/10 150 м +16.3 +14.8 91 +16 +16 тепло 1005.8 999.1 +20.4
СВ 2-2
{4}
6000 м дымка 10/10 90 м +16.1 +14.9 93 +16 +16 тепло 1005.6 998.8
В 3-5
{5}
2500 м дымка 10/10 60 м +16.1 +15.3 95 +16 +16 тепло 1005.1 998.3
З 3-5
{5}
5000 м дымка 10/10 90 м +16.2 +15.3 94 +16 +16 тепло 1005.8 999.0
В 2-3
{4}
3900 м дымка 5/5 90 м +15.8 +14.9 94 +16 +16 тепло 1004.8 998.0
В 4-5
{5}
4400 м дымка 8/8 +15.7 +14.9 95 +15 +15 тепло 1003.9 997.2
СВ 2-3
{5}
4200 м дымка 10/10 120 м +15.7 +14.8 94 +16 +16 тепло 1004.3 997.5
штиль 0-1
{4}
3700 м дымка 10/10 330 м +15.5 +14.7 95 +15 +15 тепло 1003.7 997.0
ЮЗ 1-3
{5}
400 м сильн. дождь 9/9 240 м +15.6 +14.4 93 +16 +16 тепло 1004.5 997.7
В 3-5
{6}
5000 м сильн. дождь 10/10 1080 м +15.3 +14.7 96 +15 +15 тепло 1003.2 996.5 +15.2 +17.6 6
В 3-5
{5}
14 км в посл. час дождь 10/10 2000 м +15.8 +14.6 93 +15 +15 тепло 1003.2 996.5 0.2
З 2-4
{5}
1800 м дождь 10/10 1230 м +15.9 +15.0 94 +16 +16 тепло 1004.3 997.6 0.2
СВ 2-3
{5}
4300 м слаб. дождь 10/10 90 м +15.4 +14.8 96 +15 +15 по сезону 1003.8 997.1 +16.3 1
В 3-4
{5}
6000 м слаб. дождь 10/10 120 м +16.1 +15.4 96 +16 +16 тепло 1003.5 996.8 0.2
В 3-4
{5}
3900 м дождь 10/10 180 м +16.2 +15.2 94 +16 +16 тепло 1004.1 997.3 0.6
В 2-4
{4}
9000 м слаб. дождь 10/10 2000 м +16.4 +15.5 94 +16 +16 по сезону 1004.0 997.3 1
СВ 2-3
{4}
10 км дождь 10/10 1500 м +16.4 +15.2 93 +16 +16 по сезону 1004.4 997.6
В 2-3
{5}
11 км слаб. дождь 10/10 300 м +16.2 +15.1 93 +16 +16 по сезону 1004.5 997.8 1
ЮВ 1-2
{2}
1400 м сильн. дождь 10/10 360 м +16.3 +15.3 94 +18 +18 тепло 1004.7 998.0 2
СВ 1-1
{2}
3200 м дождь 10/10 1500 м +16.4 +15.6 95 +18 +18 тепло 1004.4 997.7 3
СВ 1-2
{3}
4100 м слаб. дождь 10/10 1500 м +16.1 +15.4 96 +17 +17 тепло 1004.3 997.6
СВ 1-2
{3}
4600 м слаб. дождь 10/10 270 м +16.1 +15.3 95 +17 +17 тепло 1004.4 997.7 +16.7 0.4
штиль 0-1
{2}
4000 м слаб. дождь 10/10 240 м +16.0 +15.3 96 +16 +16 по сезону 1004.9 998.1 0.2
В 1-2
{3}
2800 м дождь 10/10 90 м +15.7 +15.1 96 +17 +17 тепло 1005.3 998.6 1
В 3-4
{5}
4000 м дождь 10/10 90 м +15.4 +14.9 97 +15 +15 по сезону 1005.7 999.0 +16.7 1
В 3-4
{4}
2000 м дождь 10/10 90 м +15.3 +14.8 97 +15 +15 тепло 1006.0 999.3 1
В 4-7
{7}
5000 м слаб. дождь 10/10 120 м +14.6 +13.8 95 +13 +13 тепло 1006.4 999.6 2
В 3-5
{6}
4000 м слаб. дождь 10/10 150 м +14.1 +13.4 96 +13 +13 тепло 1006.6 999.8 0.4
СВ 3-5
{6}
3500 м морось 10/10 150 м +13.9 +13.3 96 +13 +13 тепло 1006.4 999.6
В 4-6
{7}
12 км в посл. час морось 10/10 180 м +13.9 +13.1 95 +12 +12 тепло 1006.5 999.7 0.2
В 3-4
{6}
13 км 10/10 240 м +13.9 +13.0 94 +13 +13 тепло 1006.5 999.7
В 2-3
{5}
1800 м морось 10/10 90 м +13.8 +13.3 97 +13 +13 тепло 1006.6 999.8
В 2-3
{3}
1600 м слаб. морось с дождем 10/10 90 м +13.7 +13.3 97 +13 +13 тепло 1006.7 999.9 0.4
В 2-2
{3}
1700 м слаб. дождь 10/10 90 м +13.8 +13.5 98 +13 +13 тепло 1007.3 1000.5 +13.7 +16.1 1
СВ 1-2
{3}
1600 м морось с дождем 10/10 90 м +14.0 +13.7 98 +14 +14 тепло 1007.8 1001.0 0.6
В 3-4
{5}
2900 м слаб. дождь 10/10 90 м +13.6 +13.1 97 +13 +13 тепло 1008.5 1001.7 0.8
В 2-4
{4}
2900 м дождь 10/10 120 м +13.7 +13.4 98 +13 +13 по сезону 1009.0 1002.2 +15.4 7
В 1-2
{3}
6000 м слаб. дождь 10/10 120 м +14.1 +13.4 96 +14 +14 тепло 1009.5 1002.7 1
С 2-2
{3}
65 км в посл. час дождь 10/10 180 м +14.8 +13.8 94 +15 +15 тепло 1010.0 1003.2
В 3-5
{5}
>70 км в посл. час морось 10/10 480 м +16.2 +12.6 79 +16 +16 по сезону 1010.3 1003.6
С 2-3
{5}
>70 км 10/10 540 м +16.6 +12.1 75 +17 +17 тепло 1010.8 1004.0
2-3
{4}
>70 км в посл. час морось 10/10 630 м +17.1 +12.1 72 +18 +18 тепло 1011.2 1004.5
штиль 0-2
{3}
>70 км в посл. час морось 10/10 700 м +17.4 +12.0 71 +17 +17 тепло 1011.2 1004.4
В 4-5
{7}
2700 м дождь 10/10 600 м +14.7 +12.8 88 +13 +13 по сезону 1012.0 1005.2 0.2
В 3-5
{6}
65 км в посл. час дождь 10/10 1000 м +14.9 +12.3 84 +14 +14 тепло 1012.4 1005.5 0.2
В 5-8
{8}
25 км слаб. дождь 10/10 420 м +13.9 +11.7 87 +12 +12 по сезону 1012.9 1006.1 +17.6 0.2
В 5-8
{8}
55 км в посл. час дождь 10/10 450 м +13.5 +10.8 84 +11 +11 по сезону 1013.9 1007.0
В 5-8
{9}
40 км 10/10 420 м +13.2 +10.5 84 +11 +11 по сезону 1014.9 1008.0
В 4-8
{8}
40 км 10/10 420 м +13.1 +10.5 84 +11 +11 по сезону 1015.7 1008.9 +17.6 2
В 4-7
{7}
40 км 10/10 420 м +13.0 +10.6 85 +11 +11 по сезону 1016.4 1009.5
В 5-9
{9}
35 км слаб. морось 10/10 420 м +12.5 +10.0 85 +10 +10 по сезону 1016.7 1009.8
В 5-7
{9}
40 км в посл. час морось 10/10 450 м +12.2 +9.5 84 +10 +10 по сезону 1017.2 1010.3
В 6-8
{9}
35 км 10/10 660 м +11.8 +8.8 82 +9 +9 тепло 1017.5 1010.5
В 5-9
{9}
40 км 10/10 500 м +11.7 +8.3 80 +9 +9 тепло 1017.5 1010.6
В 5-8
{9}
35 км 10/10 630 м +11.3 +7.1 75 +9 +9 по сезону 1018.1 1011.1
В 4-6
{9}
40 км 10/10 900 м +11.1 +6.3 72 +9 +9 тепло 1018.1 1011.2
В 5-7
{8}
40 км 10/10 870 м +11.0 +5.8 70 +9 +9 тепло 1018.2 1011.2
В 4-5
{7}
45 км 10/10 1020 м +11.1 +5.4 68 +9 +9 по сезону 1018.8 1011.9 +10.9 +13.9 3.2
В 4-7
{7}
55 км 10/10 1050 м +11.6 +4.7 63 +10 +10 тепло 1019.0 1012.1
В 4-6
{7}
55 км 10/10 1500 м +12.0 +4.4 60 +10 +10 тепло 1019.2 1012.3
В 4-5
{6}
55 км 10/10 1500 м +12.4 +5.0 61 +11 +11 по сезону 1019.1 1012.2 +13.2
СВ 4-5
{6}
50 км 10/10 870 м +13.6 +6.0 60 +12 +12 тепло 1019.0 1012.1
СВ 4-5
{7}
>70 км 4/4 1500 м +14.7 +5.3 53 +14 +19 тепло 1018.9 1012.0
В 3-6
{7}
60 км 6/6 1000 м +15.5 +6.7 56 +15 +19 тепло 1018.4 1011.6
В 3-5
{7}
>70 км 10/10 1110 м +17.1 +6.8 51 +17 +17 тепло 1018.5 1011.7
В 4-6
{7}
50 км ясно +17.2 +7.8 54 +17 +24 тепло 1017.8 1011.0
С 5-7
{9}
65 км 10/10 2000 м +16.1 +6.6 53 +15 +15 тепло 1017.4 1010.6
СВ 5-6
{7}
55 км 10/10 2000 м +15.9 +6.5 54 +15 +15 тепло 1017.3 1010.5
СВ 4-6
{6}
65 км 4/4 2000 м +15.4 +6.7 56 +14 +16 тепло 1016.7 1009.9
В 4-5
{6}
55 км 10/10 1320 м +14.9 +7.0 59 +14 +14 тепло 1016.3 1009.5 +17.6
В 4-5
{6}
55 км 10/10 1260 м +14.4 +6.7 60 +13 +13 тепло 1016.4 1009.6
СВ 2-2
{5}
50 км 10/10 1200 м +13.9 +7.5 65 +14 +14 тепло 1016.3 1009.4
В 2-2
{3}
50 км 10/10 1080 м +14.0 +8.3 68 +14 +14 тепло 1015.8 1009.0 +17.6
В 2-2
{3}
50 км 10/10 2000 м +13.0 +8.7 75 +13 +13 тепло 1015.5 1008.6
ЮВ 2-3
{4}
55 км 10/10 +13.5 +8.9 74 +13 +13 тепло 1014.9 1008.0
С 1-2
{2}
45 км 10/10 2000 м +12.2 +9.1 81 +12 +12 тепло 1014.1 1007.2
З 2-3
{4}
50 км 10/10 1300 м +13.7 +9.3 75 +13 +13 тепло 1013.6 1006.7
штиль 0-1
{2}
45 км 10/10 1170 м +13.1 +9.9 81 +13 +13 тепло 1013.2 1006.3
штиль 0
{1}
40 км 10/10 1020 м +13.0 +10.1 83 +13 +13 тепло 1012.5 1005.7
СЗ 1-2
{2}
50 км дымка 10/10 840 м +12.4 +10.4 88 +13 +13 тепло 1011.8 1005.0
Ю 2-5
{5}
40 км 10/10 1320 м +14.8 +11.8 82 +14 +14 тепло 1011.1 1004.3
Ю 3-5
{6}
40 км 10/10 1380 м +15.3 +11.3 77 +15 +15 тепло 1010.6 1003.8 +12.0 +15.3
Ю 3-5
{6}
35 км 10/10 2000 м +15.6 +11.6 77 +15 +15 тепло 1010.1 1003.3
Ю 2-3
{5}
35 км 10/10 600 м +15.7 +12.1 79 +16 +16 тепло 1009.5 1002.7
ЮЗ 5-8
{8}
35 км 10/10 840 м +17.1 +11.8 71 +16 +16 тепло 1009.0 1002.3 +17.1
ЮЗ 6-12
{12}
40 км дымка 10/10 1300 м +17.5 +11.3 67 +17 +17 тепло 1008.3 1001.6
ЮЗ 7-12
{12}
45 км 5/5 1500 м +18.9 +11.7 63 +19 +21 тепло 1007.6 1000.9
ЮЗ 7-11
{13}
65 км 10/10 800 м +19.4 +12.6 65 +20 +20 тепло 1007.1 1000.4
ЮЗ 8-12
{13}
>70 км 10/10 700 м +18.7 +12.7 68 +19 +19 тепло 1006.9 1000.2
ЮЗ 7-12
{12}
65 км 10/10 660 м +20.7 +13.9 65 +23 +23 комфорт 1006.3 999.7
ЮЗ 7-13
{13}
60 км 10/10 720 м +20.5 +12.6 60 +22 +22 комфорт 1005.9 999.3
ЮЗ 6-10
{12}
>70 км 10/10 800 м +20.5 +13.1 62 +22 +22 комфорт 1005.4 998.8
ЮЗ 6-10
{11}
>70 км 10/10 1500 м +20.3 +12.1 59 +22 +22 комфорт 1004.7 998.1
ЮЗ 4-8
{11}
>70 км в посл. час морось 10/10 1050 м +18.6 +14.0 75 +19 +19 тепло 1004.3 997.6 +21.3
Ю 3-7
{9}
>70 км 4/4 2000 м +18.2 +14.3 78 +19 +19 тепло 1003.9 997.2
З 8-13
{15}
55 км в посл. час морось 10/10 420 м +16.0 +11.4 74 +14 +14 тепло 1005.2 998.5
ЮЗ 5-9
{11}
35 км 4/4 1500 м +14.1 +9.5 74 +12 +12 тепло 1006.3 999.5 +21.3
ЮЗ 4-6
{8}
30 км ясно +13.1 +9.2 77 +11 +11 тепло 1006.6 999.8
ЮЗ 4-5
{6}
27 км 1/1 1500 м +12.5 +9.2 80 +11 +11 тепло 1006.6 999.7
ЮЗ 5-8
{8}
27 км 8/8 1500 м +13.2 +9.6 79 +11 +11 тепло 1006.6 999.8
ЮЗ 5-8
{11}
25 км ясно +12.9 +9.3 79 +11 +11 тепло 1006.6 999.7
ЮЗ 5-7
{8}
26 км 5/5 800 м +12.6 +9.2 80 +10 +10 тепло 1006.7 999.9
ЮЗ 4-6
{7}
29 км в посл. час морось 5/5 840 м +12.6 +9.5 81 +11 +11 тепло 1007.1 1000.3
ЮЗ 6-8
{9}
28 км 6/6 1300 м +12.8 +9.3 79 +10 +10 тепло 1007.1 1000.3
ЮЗ 5-7
{8}
27 км 10/10 1140 м +12.6 +9.6 82 +10 +10 тепло 1007.5 1000.7
ЮЗ 7-11
{11}
27 км 4/4 1080 м +13.1 +9.6 79 +11 +11 тепло 1007.7 1000.9 +12.2 +19.2
ЮЗ 6-9
{11}
30 км 1/1 1500 м +14.0 +9.9 76 +12 +13 тепло 1008.4 1001.6
ЮЗ 7-11
{12}
35 км 5/5 2000 м +15.7 +10.0 69 +14 +15 тепло 1008.6 1001.9
ЮЗ 7-10
{10}
30 км 10/10 660 м +16.2 +10.3 68 +15 +15 тепло 1008.9 1002.1 +16.2
ЮЗ 6-8
{12}
35 км 8/8 750 м +15.9 +9.5 66 +15 +15 тепло 1008.8 1002.0
ЮЗ 7-10
{10}
40 км 4/4 1020 м +18.3 +9.4 56 +18 +20 тепло 1008.2 1001.5
ЮЗ 8-12
{13}
45 км 9/9 1110 м +18.1 +8.5 53 +17 +17 тепло 1008.2 1001.5
З 7-10
{13}
45 км 8/8 1110 м +18.4 +8.8 54 +18 +19 тепло 1008.5 1001.8
З 8-13
{13}
40 км 6/6 1200 м +19.8 +7.7 46 +20 +21 тепло 1008.3 1001.6
ЮЗ 7-11
{14}
45 км 8/8 1500 м +18.6 +9.3 55 +18 +19 тепло 1008.5 1001.8
ЮЗ 7-10
{12}
50 км 10/10 1050 м +17.8 +8.8 56 +17 +17 тепло 1008.8 1002.1
ЮЗ 3-5
{12}
40 км в посл. час дождь 4/4 1140 м +15.7 +12.7 82 +15 +17 тепло 1009.3 1002.5 2
ЮЗ 5-9
{11}
45 км в посл. час дождь 10/10 700 м +15.4 +12.1 81 +14 +14 тепло 1010.0 1003.2 +20.4 0.2
З 5-8
{9}
40 км в посл. час дождь ясно +14.6 +8.3 66 +13 +13 тепло 1010.3 1003.5
ЮЗ 4-7
{9}
40 км ясно +13.0 +9.1 77 +11 +11 тепло 1010.8 1004.0
ЮЗ 2-3
{5}
30 км ясно +11.2 +8.2 82 +10 +10 тепло 1011.2 1004.3 +20.4 2
ЮЗ 4-5
{5}
35 км 1/1 1320 м +11.2 +8.2 82 +9 +9 тепло 1011.3 1004.4
ЮЗ 3-5
{5}
30 км ясно +11.3 +8.4 82 +9 +9 тепло 1011.3 1004.4
ЮЗ 3-5
{5}
30 км 5/5 1300 м +10.9 +8.2 83 +9 +9 прохладно 1010.8 1003.9
ЮЗ 3-4
{5}
35 км 5/5 1470 м +11.0 +8.1 82 +9 +9 по сезону 1010.2 1003.3
Ю 3-5
{5}
35 км ясно +11.5 +8.0 79 +10 +10 по сезону 1009.4 1002.6
Местоположение метеостанции Эдинбург (Великобритания): широта 55.93 долгота -3.35 высота над уровнем моря 57 м.
В архиве по умолчанию представлена погода в Эдинбурге за последнюю неделю. Архивные данные за месяц целиком и за предыдущие месяцы, начиная с января 2011 года, Вы можете получить, выбрав интересующий диапазон дат из раскрывающегося списка и нажав кнопку "Найти!".
*Определитесь, кто Вы:
Внимание! Время в таблицах - всемирное. Для получения местного времени необходимо прибавить поправку, которая равна 0 ч.
Смотрите также архив погоды в соседних городах и на ближайших метеорологических станциях:
Партнеры нашего сайта:      
Пояснения к столбцам:
  • Ветер - указаны скорость ветра в м/с - средняя за 10 мин, порывы в срок и между сроками (в фигурных скобках) и направление, откуда дует ветер: С - северный,
  • СВ - северо-восточный, В - восточный, ЮВ - юго-восточный, Ю - южный, ЮЗ - юго-западный, З - западный, СЗ - северо-западный.
  • Видимость - горизонтальная дальность видимости в метрах или километрах. При видимости от 1 до 10 км при отсутствии осадков обычно наблюдается дымка, при ухудшении видимости до 1 км и менее - туман. В сухую погоду видимость может ухудшаться дымом, пылью или мглою.
  • Явления - указаны атмосферные явления, наблюдавшиеся в срок или в последний час перед сроком; фигурными скобками обозначены явления, наблюдавшиеся между сроками (за 1-3 часа до срока); квадратными скобками обозначены град или гололедные отложения с указанием их диаметра в мм.
  • Облачность - указаны через наклонную черту общая и нижняя облачность в баллах и высота нижней границы облаков в метрах; квадратными скобками обозначены формы облаков: Ci - перистые, Cs - перисто-слоистые, Cc - перисто-кучевые, Ac - высококучевые, As - высокослоистые, Sc - слоисто-кучевые, Ns - слоисто-дождевые, Cu - кучевые, Cb - кучево-дождевые. Подробнее классификацию облаков см. в Атласе облаков (PDF).
  • T - Температура воздуха - температура, измеренная на высоте 2 м над землей.
  • Td - Температура точки росы - температура, при понижении до которой содержащийся в воздухе водяной пар достигнет насыщения.
  • f - Относительная влажность воздуха - влажноcть воздуха, измеренная на высоте 2 м над землей.
  • Te - Эффективная температура - температура, которую ощущает одетый по сезону человек в тени. Характеристика душности погоды. При расчете учитывается влияние влажности воздуха и скорости ветра на теплоощущения человека.
  • Tes - Эффективная температура на солнце - температура, которую ощущает человек, с поправкой на солнечный нагрев. Характеристика знойности погоды. Зависит от высоты солнца над горизонтом, облачности и скорости ветра. Ночью, в пасмурную погоду, а также при ветре 12 м/с и более поправка равна нулю.
  • P - Атмосферное давление - приведенное к уровню моря атмосферное давление.
  • Po - Атмосферное давление - измеренное на уровне метеостанции атмосферное давление.
  • Tmin - Минимальная температура - минимум температуры воздуха на высоте 2 м над землей.
  • Tmax - Максимальная температура - максимум температуры воздуха на высоте 2 м над землей.
  • R - Количество осадков - Количество выпавших осадков за период времени, мм. При наведении курсора мыши на число - период времени, за который выпало указанное количество осадков.
  • R24 - Количество осадков - Количество выпавших осадков за 24 часа, мм.
  • S - Снежный покров - Высота снежного покрова, см. При наведении курсора мыши на число - состояние снежного покрова и степень покрытия местности в баллах.